Location: Home
(42.5358°N, 72.7383°W)
Time: 19:31:04
(UTC-04:00)

First-Move - Pass Details

Date: 26 August 2022
Orbit: 569 x 659 km, 97.6° (Epoch: 27 September)

Event Time Altitude Azimuth Distance (km) Brightness Sun altitude
Rises 03:55:30 0° 27° (NNE) 2,827 ? -22.6°
Reaches altitude 10° 03:58:09 10° 44° (NE) 1,907 ? -22.3°
Maximum altitude 04:01:15 20° 93° (E) 1,341 ? -21.8°
Drops below altitude 10° 04:04:18 10° 142° (SE) 1,873 ? -21.4°
Enters shadow 04:05:30 - 152° (SSE) 2,262 ? -21.2°
